sat.trackr.live / text

‹ back to catalog

GLOBAL-18

NORAD 52196 · 2022-034B

PAYLOAD ACTIVE UNKNOWN

§ Identity

Operator
Country
US
Launch date
2022-04-02
Launch site
RLLB
Launch vehicle
Mass (kg)
RCS (m²)

External: N2YO · Heavens-Above · Gunter

§ Orbital elements

Epoch: 2026-09-20T06:58:51.977568Z

Period
92.92 min
Inclination
52.9806°
Eccentricity
0.0003764
Mean motion
15.49774485 rev/d
Perigee alt
414.8 km
Apogee alt
419.9 km
Semi-major
6,795.5 km
B*
3.2398e-4
RAAN
160.9304°
Arg perigee
176.7990°
Mean anomaly
183.3042°
Rev number
25,169

§ Raw data

GLOBAL-181 52196U 22034B   26263.29087937  .00017912  00000+0  32398-3 0  99952 52196  52.9806 160.9304 0003764 176.7990 183.3042 15.49774485251695

JSON: /api/v1/satellites/52196 · /tle

For live sub-satellite position, see the globe view (requires WebGL).

§ Visibility from observer

Set your observer location to see the next 7 days of passes ≥ 10°. The values pass through the URL so the page stays shareable.

No JS? Fill the form by hand. The geolocation button needs JavaScript.

§ Radio — SatNOGS DB

ModeDescriptionDownlinkUplink
FM Telemetry 400.875 MHz
FM Telemetry 401.085 MHz
BPSK UHF Unknown 401.225 MHz

3 transmitters · refreshed weekly from db.satnogs.org